Weather History for K1V4 - December, 2012

Change the Weather History Date:

Monday, December 17, 2012

  Actual Average Record
Temperature  
Mean Temperature 29 °F 22 °F  
Max Temperature 33 °F 31 °F 47 °F (1984)
Min Temperature 25 °F 14 °F -26 °F (1951)
Degree Days  
Heating Degree Days 36 43  
Month to date heating degree days 574 668  
Since 1 July heating degree days 2253 2324  
Cooling Degree Days 0 0  
Month to date cooling degree days 0  
Year to date cooling degree days 433  
Moisture  
Dew Point 27 °F    
Average Humidity 92    
Maximum Humidity 100    
Minimum Humidity 84    
Precipitation  
Precipitation 0.19 in 0.10 in 1.74 in (1973)
Month to date precipitation 1.89 1.79  
Year to date precipitation 32.62 38.21  
Sea Level Pressure  
Sea Level Pressure 29.99 in    
Wind  
Wind Speed - (North)    
Max Wind Speed -    
Max Gust Speed -    
T = Trace of Precipitation, MM = Missing Value Source: NWS Daily Summary

Daily Weather History Graph

Daily Weather History Graph

Search for Another Location

Airport or City:

Trip Planner

Search our weather history database for the weather conditions in past years. The results will help you decide how hot, cold, wet, or windy it might be!

Date:

Astronomy

Dec. 17, 2012 Rise Set
Actual Time 7:19 AM EST 4:09 PM EST
Civil Twilight 6:45 AM EST 4:43 PM EST
Nautical Twilight 6:08 AM EST 5:20 PM EST
Astronomical Twilight 5:33 AM EST 5:55 PM EST
Moon 10:16 AM EST (12/17) 9:39 PM EST (12/17)
Length of Visible Light 9h 57m
Length of Day
8h 50m
Waxing Crescent, 24% of the Moon is Illuminated
Dec 17
Waxing Crescent
Dec 20
First Quarter
Dec 28
Full
Jan 4
Last Quarter
Jan 11
New

Hourly Weather History & Observations

Time (EST) Temp. Dew Point Humidity Pressure Visibility Wind Dir Wind Speed Gust Speed Precip Events Conditions
12:54 AM 26.1 °F 23.0 °F 88% 30.09 in - North - - N/A   Unknown
1:54 AM 26.1 °F 23.0 °F 88% 30.09 in - North - - N/A   Unknown
2:54 AM 27.0 °F 23.0 °F 85% 30.07 in - North - - N/A   Unknown
3:54 AM 26.1 °F 24.1 °F 92% 30.06 in - North - - 0.01 in   Unknown
4:54 AM 26.1 °F 24.1 °F 92% 30.04 in - North - - 0.05 in   Unknown
5:54 AM 26.1 °F 25.0 °F 96% 30.04 in - North - - 0.06 in   Unknown
6:54 AM 27.0 °F 25.0 °F 92% 30.04 in - North - - 0.01 in   Unknown
7:54 AM 27.0 °F 25.0 °F 92% 30.03 in - North - - 0.04 in   Unknown
8:54 AM 28.0 °F 26.1 °F 92% 30.02 in - North - - 0.02 in   Unknown
9:54 AM 28.0 °F 26.1 °F 92% 30.01 in - North - - N/A   Unknown
10:54 AM 28.9 °F 27.0 °F 92% 29.99 in - North - - N/A   Unknown
11:54 AM 30.0 °F 27.0 °F 88% 29.96 in - North - - N/A   Unknown
12:54 PM 30.9 °F 28.0 °F 89% 29.96 in - North - - N/A   Unknown
1:54 PM 30.9 °F 28.9 °F 92% 29.96 in - North - - N/A   Unknown
2:54 PM 32.0 °F 28.9 °F 88% 29.96 in - North - - N/A   Unknown
3:54 PM 32.0 °F 30.0 °F 92% 29.95 in - North - - N/A   Unknown
4:54 PM 32.0 °F 30.0 °F 92% 29.94 in - North - - N/A   Unknown
7:54 PM 32.0 °F 30.9 °F 96% 29.94 in - North - - N/A   Unknown
8:54 PM 32.0 °F 30.9 °F 96% 29.93 in - North - - N/A   Unknown
9:54 PM 32.0 °F 30.9 °F 96% 29.91 in - North - - N/A   Unknown
10:54 PM 32.0 °F 30.9 °F 96% 29.89 in - North - - N/A   Unknown
11:54 PM 33.1 °F 30.9 °F 92% 29.86 in - North - - N/A   Unknown